{"data":{"norad_id":54179,"intl_designator":"2022-141Y","name":"STARLINK-5122","alt_names":[],"object_type":"PAYLOAD","status":"ACTIVE","operator":null,"country":"US","launch_date":"2022-10-28","launch_site_code":"AFWTR","launch_vehicle":null,"mission":null,"orbit_class":"UNKNOWN","rcs_meters":null,"size_class":null,"mass_kg":null,"dimensions":null,"purposes":["comms"],"wikipedia_slug":null,"has_3d_model":false,"image_url":null,"decayed_at":null,"tle_current":{"epoch":"2026-05-25T00:40:44.745024Z","epoch_age_seconds":75867,"freshness":"FRESH","line1":"1 54179U 22141Y   26145.02829566 -.00001930  00000+0 -10316-3 0  9990","line2":"2 54179  53.2128  21.3154 0001372  96.6258 263.4890 15.08844873197382","mean_motion":15.08844873,"eccentricity":0.0001372,"inclination_deg":53.2128,"raan_deg":21.3154,"arg_perigee_deg":96.6258,"mean_anomaly_deg":263.489,"bstar":-0.00010316,"rev_number":19738,"period_min":95.437246450451,"perigee_km":538.77936304686,"apogee_km":540.67762533847,"semimajor_km":6917.8654941927,"source":"CELESTRAK","updated_at":"2026-05-25T13:38:17.664099Z"}}}